UAE340 OERK-OEDF

Flight info

Callsign UAE340
Flight time 0h 37m
Altitude 25000
Route EGPIN H744 ITUNI N687 MIBRA
Aircraft A346/H-SDE2E3FGHIJ3J4J5M1RWXY/LB1D1

Departure

Time 2026-05-08 17:24
Airport King Khalid International Airport (OERK)

Arrival

Time 2026-05-08 18:02
Airport King Fahd International Airport (OEDF)
Time Latitude Longitude Altitude Speed Heading
2026-05-08 16:36 24.96478 46.70121 2037 ft 0 kts 195°
2026-05-08 17:03 24.96478 46.70122 2021 ft 0 kts 195°
2026-05-08 17:06 24.96561 46.70145 2023 ft 0 kts 188°
2026-05-08 17:06 24.96712 46.70156 2024 ft 0 kts 152°
2026-05-08 17:12 24.96710 46.70157 2024 ft 1 kts 152°
2026-05-08 17:12 24.96696 46.70167 2031 ft 4 kts 147°
2026-05-08 17:12 24.96626 46.70214 2058 ft 17 kts 150°
2026-05-08 17:12 24.96529 46.70276 2059 ft 15 kts 150°
2026-05-08 17:13 24.96450 46.70325 2056 ft 0 kts 151°
2026-05-08 17:13 24.96442 46.70330 2056 ft 3 kts 151°
2026-05-08 17:13 24.96417 46.70349 2060 ft 6 kts 142°
2026-05-08 17:13 24.96389 46.70395 2059 ft 9 kts 106°
2026-05-08 17:14 24.96393 46.70441 2058 ft 2 kts 68°
2026-05-08 17:14 24.96403 46.70462 2055 ft 5 kts 63°
2026-05-08 17:14 24.96423 46.70504 2058 ft 8 kts 60°
2026-05-08 17:14 24.96427 46.70513 2060 ft 0 kts 60°
2026-05-08 17:15 24.96431 46.70521 2058 ft 3 kts 60°
2026-05-08 17:15 24.96445 46.70548 2057 ft 6 kts 62°
2026-05-08 17:15 24.96462 46.70600 2051 ft 9 kts 84°
2026-05-08 17:15 24.96426 46.70657 2054 ft 11 kts 149°
2026-05-08 17:16 24.96354 46.70704 2057 ft 14 kts 149°
2026-05-08 17:16 24.96261 46.70765 2056 ft 17 kts 149°
2026-05-08 17:16 24.96145 46.70833 2053 ft 20 kts 152°
2026-05-08 17:16 24.96020 46.70911 2056 ft 22 kts 148°
2026-05-08 17:17 24.95881 46.71000 2055 ft 24 kts 152°
2026-05-08 17:17 24.95732 46.71091 2057 ft 25 kts 150°
2026-05-08 17:17 24.95572 46.71193 2057 ft 27 kts 150°
2026-05-08 17:17 24.95405 46.71299 2055 ft 28 kts 150°
2026-05-08 17:18 24.95231 46.71408 2054 ft 29 kts 150°
2026-05-08 17:18 24.95055 46.71521 2057 ft 20 kts 149°
2026-05-08 17:18 24.94930 46.71600 2055 ft 22 kts 150°
2026-05-08 17:18 24.94791 46.71689 2056 ft 24 kts 150°
2026-05-08 17:19 24.94639 46.71785 2056 ft 26 kts 150°
2026-05-08 17:19 24.94475 46.71886 2056 ft 27 kts 150°
2026-05-08 17:19 24.94332 46.71981 2057 ft 17 kts 141°
2026-05-08 17:19 24.94311 46.72080 2057 ft 14 kts 69°
2026-05-08 17:20 24.94323 46.72105 2059 ft 0 kts 58°
2026-05-08 17:20 24.94324 46.72105 2059 ft 0 kts 58°
2026-05-08 17:20 24.94324 46.72106 2059 ft 0 kts 58°
2026-05-08 17:21 24.94324 46.72107 2056 ft 0 kts 58°
2026-05-08 17:21 24.94325 46.72108 2056 ft 1 kts 58°
2026-05-08 17:22 24.94333 46.72122 2059 ft 4 kts 58°
2026-05-08 17:22 24.94352 46.72157 2056 ft 7 kts 58°
2026-05-08 17:22 24.94393 46.72201 2056 ft 10 kts 31°
2026-05-08 17:22 24.94469 46.72219 2057 ft 13 kts 353°
2026-05-08 17:23 24.94565 46.72175 2056 ft 17 kts 330°
2026-05-08 17:23 24.94825 46.72010 2056 ft 79 kts 330°
2026-05-08 17:23 24.95505 46.71583 2057 ft 143 kts 330°
2026-05-08 17:23 24.96534 46.70940 2062 ft 193 kts 332°
2026-05-08 17:24 24.97772 46.70196 2506 ft 206 kts 335°
2026-05-08 17:24 24.99045 46.69424 3178 ft 211 kts 335°
2026-05-08 17:24 25.00356 46.68637 3905 ft 214 kts 334°
2026-05-08 17:24 25.01668 46.67849 4721 ft 218 kts 334°
2026-05-08 17:25 25.03159 46.67247 5313 ft 234 kts 359°
2026-05-08 17:25 25.04849 46.67344 5947 ft 251 kts
2026-05-08 17:25 25.06670 46.67335 6566 ft 272 kts 358°
2026-05-08 17:25 25.08611 46.67138 7215 ft 287 kts 354°
2026-05-08 17:26 25.10622 46.66930 7715 ft 294 kts
2026-05-08 17:26 25.12588 46.67513 8060 ft 294 kts 31°
2026-05-08 17:26 25.14101 46.68950 8393 ft 294 kts 55°
2026-05-08 17:26 25.15240 46.70883 8753 ft 296 kts 62°
2026-05-08 17:27 25.16269 46.72865 9094 ft 299 kts 63°
2026-05-08 17:27 25.17289 46.74878 9441 ft 302 kts 63°
2026-05-08 17:27 25.18318 46.76911 9801 ft 304 kts 63°
2026-05-08 17:27 25.19358 46.78958 10125 ft 308 kts 63°
2026-05-08 17:28 25.20442 46.81098 10477 ft 332 kts 63°
2026-05-08 17:28 25.21609 46.83425 10789 ft 357 kts 63°
2026-05-08 17:28 25.22825 46.85876 11132 ft 378 kts 63°
2026-05-08 17:28 25.23974 46.88528 11475 ft 385 kts 69°
2026-05-08 17:29 25.24982 46.91294 11806 ft 388 kts 70°
2026-05-08 17:29 25.25971 46.94088 12139 ft 391 kts 70°
2026-05-08 17:29 25.26984 46.96933 12493 ft 394 kts 70°
2026-05-08 17:29 25.27988 46.99718 12833 ft 397 kts 70°
2026-05-08 17:30 25.29028 47.02577 13193 ft 399 kts 69°
2026-05-08 17:30 25.30089 47.05475 13551 ft 402 kts 69°
2026-05-08 17:30 25.31131 47.08311 13895 ft 405 kts 69°
2026-05-08 17:30 25.32202 47.11223 14216 ft 408 kts 69°
2026-05-08 17:31 25.33274 47.14140 14535 ft 410 kts 69°
2026-05-08 17:31 25.34354 47.17074 14863 ft 413 kts 69°
2026-05-08 17:31 25.35438 47.20022 15191 ft 415 kts 69°
2026-05-08 17:31 25.36532 47.22996 15521 ft 418 kts 69°
2026-05-08 17:32 25.37629 47.25982 15863 ft 420 kts 69°
2026-05-08 17:32 25.38730 47.28984 16202 ft 422 kts 68°
2026-05-08 17:32 25.39839 47.32006 16544 ft 424 kts 68°
2026-05-08 17:32 25.40953 47.35043 16882 ft 427 kts 68°
2026-05-08 17:33 25.42072 47.38097 16981 ft 428 kts 68°
2026-05-08 17:33 25.43191 47.41151 16990 ft 427 kts 68°
2026-05-08 17:33 25.44308 47.44203 16977 ft 427 kts 68°
2026-05-08 17:33 25.45425 47.47257 16983 ft 427 kts 68°
2026-05-08 17:34 25.46541 47.50311 16988 ft 427 kts 68°
2026-05-08 17:34 25.47658 47.53370 16975 ft 427 kts 68°
2026-05-08 17:34 25.48771 47.56422 16977 ft 428 kts 68°
2026-05-08 17:34 25.49886 47.59480 16975 ft 428 kts 68°
2026-05-08 17:35 25.50999 47.62536 16972 ft 428 kts 68°
2026-05-08 17:35 25.52111 47.65594 16975 ft 428 kts 69°
2026-05-08 17:35 25.53225 47.68657 16969 ft 428 kts 69°
2026-05-08 17:35 25.54323 47.71680 16965 ft 428 kts 69°
2026-05-08 17:36 25.55434 47.74741 16961 ft 428 kts 69°
2026-05-08 17:36 25.56544 47.77801 16969 ft 428 kts 69°
2026-05-08 17:36 25.57653 47.80859 16957 ft 428 kts 69°
2026-05-08 17:36 25.58761 47.83918 16963 ft 427 kts 69°
2026-05-08 17:37 25.59870 47.86981 16962 ft 427 kts 69°
2026-05-08 17:37 25.60976 47.90039 16955 ft 428 kts 69°
2026-05-08 17:37 25.62082 47.93099 16969 ft 427 kts 69°
2026-05-08 17:37 25.63188 47.96163 16957 ft 427 kts 69°
2026-05-08 17:38 25.64291 47.99221 16967 ft 427 kts 69°
2026-05-08 17:38 25.65399 48.02292 16947 ft 426 kts 69°
2026-05-08 17:38 25.66501 48.05350 16951 ft 426 kts 69°
2026-05-08 17:38 25.67601 48.08405 16942 ft 426 kts 69°
2026-05-08 17:39 25.68699 48.11457 16944 ft 426 kts 69°
2026-05-08 17:39 25.69797 48.14511 16955 ft 425 kts 69°
2026-05-08 17:39 25.70892 48.17560 16952 ft 425 kts 69°
2026-05-08 17:39 25.71987 48.20610 16934 ft 425 kts 69°
2026-05-08 17:40 25.73081 48.23660 16940 ft 425 kts 69°
2026-05-08 17:40 25.74176 48.26715 16934 ft 425 kts 69°
2026-05-08 17:40 25.75268 48.29763 16938 ft 425 kts 69°
2026-05-08 17:40 25.76361 48.32820 16945 ft 425 kts 69°
2026-05-08 17:41 25.77453 48.35873 16943 ft 425 kts 69°
2026-05-08 17:41 25.78542 48.38920 16925 ft 425 kts 69°
2026-05-08 17:41 25.79633 48.41976 16925 ft 425 kts 69°
2026-05-08 17:41 25.80719 48.45021 16922 ft 424 kts 69°
2026-05-08 17:42 25.81806 48.48072 16921 ft 424 kts 69°
2026-05-08 17:42 25.82891 48.51117 16918 ft 424 kts 69°
2026-05-08 17:42 25.83610 48.53138 16930 ft 423 kts 69°
2026-05-08 17:42 25.84692 48.56177 16932 ft 423 kts 69°
2026-05-08 17:43 25.86123 48.60205 16928 ft 423 kts 69°
2026-05-08 17:43 25.87201 48.63239 16928 ft 422 kts 69°
2026-05-08 17:43 25.87931 48.65296 16925 ft 422 kts 69°
2026-05-08 17:43 25.89009 48.68335 16909 ft 422 kts 69°
2026-05-08 17:44 25.90083 48.71366 16906 ft 422 kts 69°
2026-05-08 17:44 25.91158 48.74401 16914 ft 421 kts 69°
2026-05-08 17:44 25.92231 48.77435 16905 ft 421 kts 69°
2026-05-08 17:44 25.93303 48.80467 16901 ft 421 kts 69°
2026-05-08 17:45 25.94425 48.83459 16904 ft 412 kts 66°
2026-05-08 17:45 25.95719 48.86223 16897 ft 395 kts 60°
2026-05-08 17:45 25.97153 48.88766 16732 ft 383 kts 57°
2026-05-08 17:45 25.98614 48.91220 16360 ft 378 kts 57°
2026-05-08 17:46 26.00081 48.93660 15917 ft 376 kts 56°
2026-05-08 17:46 26.01508 48.96037 15490 ft 373 kts 56°
2026-05-08 17:46 26.02943 48.98435 15062 ft 370 kts 57°
2026-05-08 17:46 26.04371 49.00830 14649 ft 368 kts 57°
2026-05-08 17:47 26.05781 49.03200 14215 ft 365 kts 57°
2026-05-08 17:47 26.07196 49.05582 13805 ft 363 kts 57°
2026-05-08 17:47 26.08565 49.07888 13373 ft 360 kts 57°
2026-05-08 17:47 26.09941 49.10208 12923 ft 358 kts 57°
2026-05-08 17:48 26.11310 49.12517 12465 ft 355 kts 56°
2026-05-08 17:48 26.12665 49.14804 12042 ft 352 kts 56°
2026-05-08 17:48 26.14011 49.17077 11610 ft 350 kts 56°
2026-05-08 17:48 26.15346 49.19335 11171 ft 347 kts 56°
2026-05-08 17:49 26.16672 49.21576 10745 ft 345 kts 56°
2026-05-08 17:49 26.17988 49.23802 10321 ft 343 kts 56°
2026-05-08 17:49 26.19297 49.26018 9906 ft 341 kts 56°
2026-05-08 17:49 26.20596 49.28217 9488 ft 338 kts 56°
2026-05-08 17:50 26.21865 49.30369 9298 ft 327 kts 56°
2026-05-08 17:50 26.23097 49.32459 9097 ft 317 kts 56°
2026-05-08 17:50 26.24290 49.34481 8928 ft 307 kts 56°
2026-05-08 17:50 26.25448 49.36445 8728 ft 299 kts 55°
2026-05-08 17:51 26.26585 49.38372 8402 ft 297 kts 55°
2026-05-08 17:51 26.27715 49.40291 8061 ft 295 kts 55°
2026-05-08 17:51 26.28837 49.42198 7739 ft 292 kts 55°
2026-05-08 17:51 26.29951 49.44089 7403 ft 291 kts 55°
2026-05-08 17:52 26.31056 49.45968 7075 ft 288 kts 54°
2026-05-08 17:52 26.32148 49.47826 6986 ft 287 kts 54°
2026-05-08 17:52 26.34346 49.51560 6980 ft 288 kts 55°
2026-05-08 17:53 26.35389 49.53466 6958 ft 289 kts 65°
2026-05-08 17:53 26.35686 49.55665 6867 ft 287 kts 96°
2026-05-08 17:53 26.34975 49.57726 6462 ft 290 kts 126°
2026-05-08 17:53 26.33599 49.59381 6092 ft 290 kts 135°
2026-05-08 17:54 26.32287 49.60873 5863 ft 285 kts 132°
2026-05-08 17:54 26.31279 49.62159 5737 ft 278 kts 128°
2026-05-08 17:54 26.30140 49.63865 5582 ft 270 kts 123°
2026-05-08 17:54 26.29173 49.65624 5432 ft 262 kts 117°
2026-05-08 17:55 26.28367 49.67418 5225 ft 257 kts 112°
2026-05-08 17:55 26.27709 49.69239 4937 ft 256 kts 107°
2026-05-08 17:55 26.27170 49.71160 4652 ft 256 kts 102°
2026-05-08 17:55 26.26781 49.73064 4353 ft 255 kts 97°
2026-05-08 17:56 26.26521 49.75016 4065 ft 254 kts 93°
2026-05-08 17:56 26.26394 49.76979 3763 ft 253 kts 88°
2026-05-08 17:56 26.26399 49.78937 3493 ft 252 kts 83°
2026-05-08 17:56 26.26537 49.80885 3202 ft 252 kts 78°
2026-05-08 17:57 26.26806 49.82812 2920 ft 250 kts 71°
2026-05-08 17:57 26.27575 49.84468 2608 ft 236 kts 35°
2026-05-08 17:57 26.28963 49.85317 2336 ft 226 kts 16°
2026-05-08 17:57 26.30450 49.85869 2046 ft 222 kts
2026-05-08 17:58 26.31921 49.85748 1968 ft 205 kts 344°
2026-05-08 17:58 26.33245 49.85299 1958 ft 192 kts 340°
2026-05-08 17:58 26.34487 49.84853 1943 ft 185 kts 341°
2026-05-08 17:58 26.35679 49.84460 1911 ft 171 kts 342°
2026-05-08 17:59 26.36791 49.84111 1701 ft 161 kts 342°
2026-05-08 17:59 26.37850 49.83783 1498 ft 155 kts 342°
2026-05-08 17:59 26.38867 49.83469 1295 ft 149 kts 342°
2026-05-08 17:59 26.39871 49.83142 871 ft 151 kts 343°
2026-05-08 18:00 26.40856 49.82810 607 ft 144 kts 345°
2026-05-08 18:00 26.42654 49.82276 418 ft 133 kts 346°
2026-05-08 18:00 26.43554 49.82011 373 ft 137 kts 343°
2026-05-08 18:01 26.44489 49.81726 286 ft 138 kts 345°
2026-05-08 18:01 26.45399 49.81438 104 ft 137 kts 346°
2026-05-08 18:01 26.46164 49.81205 97 ft 84 kts 344°
2026-05-08 18:01 26.46580 49.81075 98 ft 51 kts 343°
2026-05-08 18:02 26.46909 49.80968 97 ft 47 kts 346°
2026-05-08 18:02 26.47116 49.80903 95 ft 44 kts 344°
2026-05-08 18:02 26.47492 49.80789 97 ft 40 kts 339°
2026-05-08 18:02 26.47709 49.80616 96 ft 38 kts 314°
2026-05-08 18:03 26.47840 49.80406 93 ft 30 kts 270°
2026-05-08 18:03 26.47791 49.80174 97 ft 31 kts 254°
2026-05-08 18:03 26.47732 49.79940 101 ft 30 kts 254°
2026-05-08 18:03 26.47674 49.79711 104 ft 31 kts 254°
2026-05-08 18:04 26.47616 49.79476 103 ft 32 kts 254°
2026-05-08 18:04 26.47553 49.79224 95 ft 35 kts 254°
2026-05-08 18:04 26.47462 49.79122 95 ft 16 kts 175°
2026-05-08 18:04 26.47425 49.79131 96 ft 1 kts 165°
2026-05-08 18:05 26.47406 49.79137 96 ft 5 kts 165°
2026-05-08 18:05 26.47362 49.79152 95 ft 9 kts 162°
2026-05-08 18:05 26.47293 49.79184 97 ft 13 kts 155°
2026-05-08 18:05 26.47199 49.79233 95 ft 17 kts 155°
2026-05-08 18:06 26.47081 49.79297 97 ft 21 kts 153°
2026-05-08 18:06 26.46939 49.79376 96 ft 24 kts 153°
2026-05-08 18:06 26.46776 49.79444 96 ft 26 kts 163°
2026-05-08 18:06 26.46594 49.79486 95 ft 21 kts 175°
2026-05-08 18:07 26.46466 49.79498 94 ft 15 kts 174°
2026-05-08 18:07 26.46415 49.79541 95 ft 9 kts 116°
2026-05-08 18:07 26.46410 49.79562 97 ft 0 kts 90°
2026-05-08 18:07 26.46411 49.79576 95 ft 3 kts 86°
2026-05-08 18:08 26.46412 49.79602 93 ft 0 kts 86°
2026-05-08 18:27 26.42702 49.82263 434 ft 0 kts 345°
2026-05-08 18:27 26.43304 49.82088 394 ft 137 kts 343°
2026-05-08 18:27 26.44537 49.81711 276 ft 138 kts 345°
2026-05-08 18:27 26.45461 49.81419 101 ft 136 kts 346°
2026-05-08 18:28 26.46199 49.81193 98 ft 79 kts 344°